{"data":{"norad_id":67881,"epoch":"2026-05-25T01:16:39.312192Z","epoch_age_seconds":64464,"freshness":"FRESH","line1":"1 67881U 26035C   26145.05323278  .00014488  00000+0  45011-3 0  9992","line2":"2 67881  97.2828  78.6216 0001531 102.0984 258.0431 15.33452415 15699","mean_motion":15.33452415,"eccentricity":0.0001531,"inclination_deg":97.2828,"raan_deg":78.6216,"arg_perigee_deg":102.0984,"mean_anomaly_deg":258.0431,"bstar":0.00045011,"rev_number":1569,"period_min":93.905750573943,"perigee_km":464.47334868687,"apogee_km":466.56887680099,"semimajor_km":6843.6581127439,"source":"CELESTRAK","updated_at":"2026-05-25T13:38:21.731883Z"}}